Location: Gaast
(52.9002°N, 5.8891°E)
Time: 00:19:51
(UTC+00:00)

Meteor 2-3 Rocket - Pass Details

Date: 18 November 2025
Orbit: 841 x 884 km, 81.2° (Epoch: 04 December)

Event Time Altitude Azimuth Distance (km) Brightness Sun altitude
Rises 18:28:14 0° 345° (NNW) 3,470 7.1 -25.3°
Reaches altitude 10° 18:30:42 10° 343° (NNW) 2,521 6.4 -25.7°
Maximum altitude 18:36:22 67° 262° (W) 930 4.0 -26.6°
Drops below altitude 10° 18:41:56 10° 181° (S) 2,475 6.1 -27.4°
Sets 18:44:21 0° 178° (S) 3,401 6.8 -27.8°
